SKP1404 YPPH-YPDN

Flight info

Callsign SKP1404
Flight time 3h 30m
Altitude 37000
Route AMANA5/21 AMANA Y31 MANIG Y36 BIDAP T63 ARG J72 DN
Aircraft A320/M-SDE3FGHIRWY/LB1

Departure

Time 2026-04-27 09:10
Airport Perth International Airport (YPPH)

Arrival

Time 2026-04-27 12:40
Airport Darwin International Airport / RAAF Darwin (YPDN)
Time Latitude Longitude Altitude Speed Heading
2026-04-27 08:28 -31.93761 115.96055 50 ft 0 kts 329°
2026-04-27 08:57 -31.93782 115.96068 44 ft 4 kts 341°
2026-04-27 08:58 -31.93808 115.96075 48 ft 3 kts 355°
2026-04-27 08:58 -31.93812 115.96076 48 ft 0 kts 355°
2026-04-27 09:02 -31.93803 115.96082 48 ft 5 kts 41°
2026-04-27 09:02 -31.93788 115.96127 49 ft 5 kts 72°
2026-04-27 09:02 -31.93774 115.96167 49 ft 7 kts 53°
2026-04-27 09:02 -31.93702 115.96181 49 ft 13 kts 353°
2026-04-27 09:03 -31.93612 115.96189 49 ft 12 kts 13°
2026-04-27 09:03 -31.93536 115.96218 46 ft 11 kts 28°
2026-04-27 09:03 -31.93476 115.96259 49 ft 9 kts 30°
2026-04-27 09:03 -31.93423 115.96288 49 ft 8 kts 23°
2026-04-27 09:04 -31.93369 115.96309 49 ft 11 kts 13°
2026-04-27 09:04 -31.93278 115.96329 49 ft 16 kts
2026-04-27 09:04 -31.93184 115.96337 47 ft 15 kts 13°
2026-04-27 09:04 -31.93098 115.96401 49 ft 12 kts 45°
2026-04-27 09:05 -31.93046 115.96469 47 ft 10 kts 47°
2026-04-27 09:05 -31.93000 115.96527 49 ft 10 kts 47°
2026-04-27 09:05 -31.92938 115.96585 49 ft 12 kts 17°
2026-04-27 09:05 -31.92860 115.96614 49 ft 12 kts 28°
2026-04-27 09:06 -31.92849 115.96701 49 ft 9 kts 104°
2026-04-27 09:06 -31.92850 115.96704 49 ft 0 kts 104°
2026-04-27 09:07 -31.92855 115.96725 48 ft 7 kts 105°
2026-04-27 09:07 -31.92870 115.96793 48 ft 8 kts 105°
2026-04-27 09:07 -31.92902 115.96834 49 ft 7 kts 172°
2026-04-27 09:07 -31.92927 115.96828 48 ft 0 kts 194°
2026-04-27 09:09 -31.92930 115.96827 48 ft 4 kts 194°
2026-04-27 09:09 -31.93121 115.96771 46 ft 64 kts 194°
2026-04-27 09:10 -31.93779 115.96578 51 ft 127 kts 194°
2026-04-27 09:10 -31.94784 115.96293 216 ft 158 kts 194°
2026-04-27 09:10 -31.95846 115.96010 883 ft 155 kts 194°
2026-04-27 09:10 -31.96889 115.95720 1579 ft 153 kts 192°
2026-04-27 09:11 -31.97925 115.95439 2158 ft 153 kts 195°
2026-04-27 09:11 -31.98958 115.95130 2706 ft 154 kts 197°
2026-04-27 09:11 -31.99999 115.94812 3217 ft 156 kts 196°
2026-04-27 09:11 -32.01121 115.94471 3509 ft 178 kts 196°
2026-04-27 09:12 -32.02422 115.94443 3748 ft 203 kts 159°
2026-04-27 09:12 -32.03531 115.95579 3954 ft 228 kts 117°
2026-04-27 09:12 -32.04120 115.97380 4283 ft 251 kts 103°
2026-04-27 09:12 -32.04530 115.99479 4688 ft 273 kts 100°
2026-04-27 09:13 -32.04911 116.01720 5397 ft 282 kts 100°
2026-04-27 09:13 -32.05324 116.04008 6238 ft 287 kts 101°
2026-04-27 09:13 -32.05785 116.06323 7035 ft 292 kts 103°
2026-04-27 09:13 -32.06290 116.08668 7843 ft 297 kts 104°
2026-04-27 09:14 -32.06826 116.11040 8629 ft 302 kts 105°
2026-04-27 09:14 -32.07386 116.13449 9419 ft 307 kts 105°
2026-04-27 09:14 -32.07944 116.15906 10153 ft 314 kts 102°
2026-04-27 09:14 -32.08165 116.18552 10403 ft 336 kts 86°
2026-04-27 09:15 -32.07765 116.21341 10724 ft 353 kts 70°
2026-04-27 09:15 -32.06728 116.23983 11308 ft 357 kts 54°
2026-04-27 09:15 -32.05105 116.26185 12011 ft 356 kts 40°
2026-04-27 09:15 -32.03279 116.28178 12745 ft 360 kts 40°
2026-04-27 09:16 -32.01424 116.30186 13430 ft 365 kts 40°
2026-04-27 09:16 -31.99541 116.32212 14064 ft 369 kts 39°
2026-04-27 09:16 -31.97632 116.34261 14654 ft 373 kts 39°
2026-04-27 09:16 -31.95702 116.36328 15290 ft 377 kts 39°
2026-04-27 09:17 -31.93748 116.38415 15904 ft 380 kts 39°
2026-04-27 09:17 -31.91783 116.40512 16507 ft 384 kts 38°
2026-04-27 09:17 -31.89794 116.42637 17107 ft 387 kts 38°
2026-04-27 09:17 -31.87790 116.44780 17699 ft 391 kts 38°
2026-04-27 09:18 -31.85767 116.46948 18293 ft 395 kts 38°
2026-04-27 09:18 -31.83728 116.49131 18821 ft 398 kts 38°
2026-04-27 09:18 -31.81678 116.51322 19369 ft 400 kts 37°
2026-04-27 09:18 -31.79611 116.53531 19931 ft 401 kts 38°
2026-04-27 09:19 -31.77566 116.55716 20491 ft 403 kts 38°
2026-04-27 09:19 -31.75483 116.57941 21050 ft 405 kts 38°
2026-04-27 09:19 -31.73398 116.60164 21648 ft 406 kts 38°
2026-04-27 09:19 -31.71292 116.62405 22202 ft 408 kts 38°
2026-04-27 09:20 -31.69183 116.64650 22723 ft 411 kts 38°
2026-04-27 09:20 -31.67058 116.66908 23231 ft 413 kts 37°
2026-04-27 09:20 -31.64915 116.69182 23708 ft 416 kts 37°
2026-04-27 09:20 -31.62759 116.71469 24121 ft 418 kts 37°
2026-04-27 09:21 -31.60592 116.73764 24540 ft 420 kts 37°
2026-04-27 09:21 -31.58413 116.76072 24953 ft 422 kts 37°
2026-04-27 09:21 -31.56228 116.78389 25356 ft 424 kts 37°
2026-04-27 09:21 -31.54039 116.80710 25741 ft 426 kts 37°
2026-04-27 09:22 -31.51862 116.83015 26116 ft 427 kts 37°
2026-04-27 09:22 -31.49656 116.85351 26479 ft 429 kts 37°
2026-04-27 09:22 -31.47430 116.87704 26776 ft 433 kts 37°
2026-04-27 09:22 -31.45186 116.90074 27070 ft 436 kts 37°
2026-04-27 09:23 -31.42922 116.92463 27401 ft 439 kts 37°
2026-04-27 09:23 -31.40649 116.94864 27734 ft 441 kts 37°
2026-04-27 09:23 -31.38366 116.97274 28064 ft 444 kts 37°
2026-04-27 09:23 -31.36067 116.99698 28398 ft 446 kts 37°
2026-04-27 09:24 -31.33754 117.02132 28726 ft 448 kts 37°
2026-04-27 09:24 -31.31428 117.04580 29040 ft 450 kts 37°
2026-04-27 09:24 -31.29093 117.07035 29343 ft 452 kts 37°
2026-04-27 09:24 -31.26748 117.09500 29638 ft 454 kts 37°
2026-04-27 09:25 -31.24394 117.11972 29926 ft 456 kts 37°
2026-04-27 09:25 -31.22025 117.14458 30193 ft 458 kts 37°
2026-04-27 09:25 -31.19653 117.16943 30429 ft 460 kts 37°
2026-04-27 09:25 -31.17260 117.19442 30668 ft 460 kts 37°
2026-04-27 09:26 -31.14873 117.21930 30913 ft 461 kts 37°
2026-04-27 09:26 -31.12478 117.24426 31152 ft 462 kts 37°
2026-04-27 09:26 -31.10082 117.26930 31391 ft 462 kts 37°
2026-04-27 09:26 -31.07720 117.29405 31701 ft 461 kts 37°
2026-04-27 09:27 -31.05336 117.31905 32001 ft 461 kts 37°
2026-04-27 09:27 -31.02953 117.34407 32307 ft 460 kts 37°
2026-04-27 09:27 -31.00570 117.36898 32606 ft 459 kts 36°
2026-04-27 09:27 -30.98188 117.39381 32901 ft 459 kts 36°
2026-04-27 09:28 -30.95805 117.41863 33204 ft 458 kts 36°
2026-04-27 09:28 -30.93430 117.44331 33498 ft 457 kts 36°
2026-04-27 09:28 -30.91058 117.46793 33795 ft 457 kts 36°
2026-04-27 09:28 -30.88684 117.49251 34086 ft 456 kts 36°
2026-04-27 09:29 -30.86312 117.51709 34338 ft 456 kts 36°
2026-04-27 09:29 -30.83948 117.54165 34564 ft 456 kts 36°
2026-04-27 09:29 -30.81574 117.56630 34692 ft 459 kts 35°
2026-04-27 09:29 -30.79186 117.59101 34836 ft 461 kts 35°
2026-04-27 09:30 -30.76789 117.61580 35024 ft 461 kts 35°
2026-04-27 09:30 -30.74392 117.64060 35210 ft 462 kts 35°
2026-04-27 09:30 -30.71988 117.66547 35418 ft 462 kts 35°
2026-04-27 09:30 -30.69583 117.69035 35611 ft 462 kts 34°
2026-04-27 09:31 -30.67180 117.71518 35798 ft 463 kts 34°
2026-04-27 09:31 -30.64771 117.74003 35980 ft 463 kts 34°
2026-04-27 09:31 -30.62359 117.76491 36158 ft 463 kts 34°
2026-04-27 09:31 -30.59986 117.78935 36335 ft 463 kts 34°
2026-04-27 09:32 -30.57574 117.81415 36512 ft 463 kts 34°
2026-04-27 09:32 -30.55160 117.83895 36690 ft 463 kts 34°
2026-04-27 09:32 -30.52743 117.86381 36841 ft 464 kts 34°
2026-04-27 09:32 -30.50330 117.88860 36997 ft 464 kts 34°
2026-04-27 09:33 -30.47909 117.91340 37046 ft 464 kts 33°
2026-04-27 09:33 -30.43076 117.96305 37054 ft 464 kts 34°
2026-04-27 09:34 -30.38241 118.01265 37058 ft 464 kts 33°
2026-04-27 09:34 -30.33406 118.06208 37058 ft 464 kts 33°
2026-04-27 09:35 -30.28558 118.11150 37052 ft 465 kts 33°
2026-04-27 09:35 -30.23702 118.16107 37051 ft 466 kts 33°
2026-04-27 09:36 -30.18841 118.21065 37044 ft 466 kts 33°
2026-04-27 09:36 -30.13971 118.26024 37048 ft 466 kts 33°
2026-04-27 09:37 -30.09126 118.30951 37045 ft 466 kts 33°
2026-04-27 09:37 -30.04245 118.35889 37045 ft 467 kts 33°
2026-04-27 09:38 -29.99360 118.40831 37027 ft 467 kts 33°
2026-04-27 09:38 -29.94475 118.45785 37028 ft 467 kts 33°
2026-04-27 09:39 -29.89578 118.50726 37035 ft 468 kts 33°
2026-04-27 09:39 -29.84677 118.55665 37017 ft 468 kts 33°
2026-04-27 09:40 -29.79778 118.60607 37028 ft 468 kts 33°
2026-04-27 09:40 -29.74884 118.65547 37034 ft 468 kts 33°
2026-04-27 09:41 -29.69979 118.70474 37023 ft 468 kts 33°
2026-04-27 09:41 -29.65899 118.74558 37029 ft 467 kts 33°
2026-04-27 09:42 -29.60992 118.79470 37034 ft 467 kts 33°
2026-04-27 09:42 -29.56092 118.84390 37036 ft 467 kts 33°
2026-04-27 09:43 -29.51185 118.89296 37014 ft 467 kts 32°
2026-04-27 09:43 -29.46280 118.94181 37023 ft 467 kts 32°
2026-04-27 09:44 -29.41370 118.99075 37008 ft 467 kts 32°
2026-04-27 09:44 -29.36496 119.03931 37026 ft 467 kts 32°
2026-04-27 09:45 -29.31590 119.08811 37026 ft 467 kts 32°
2026-04-27 09:45 -29.26685 119.13684 37028 ft 467 kts 32°
2026-04-27 09:46 -29.21772 119.18562 37027 ft 467 kts 32°
2026-04-27 09:46 -29.16854 119.23437 37010 ft 466 kts 32°
2026-04-27 09:47 -29.11939 119.28286 37005 ft 467 kts 32°
2026-04-27 09:47 -29.07013 119.33148 37005 ft 468 kts 32°
2026-04-27 09:48 -29.02104 119.38002 37009 ft 469 kts 32°
2026-04-27 09:48 -28.97157 119.42879 37014 ft 469 kts 32°
2026-04-27 09:49 -28.92200 119.47755 37022 ft 470 kts 32°
2026-04-27 09:49 -28.87240 119.52627 37037 ft 470 kts 32°
2026-04-27 09:50 -28.82434 119.57785 37002 ft 477 kts 36°
2026-04-27 09:50 -28.77828 119.63259 37020 ft 480 kts 37°
2026-04-27 09:51 -28.73240 119.68728 37032 ft 480 kts 37°
2026-04-27 09:51 -28.68559 119.74144 37041 ft 479 kts 36°
2026-04-27 09:52 -28.63847 119.79517 37048 ft 479 kts 36°
2026-04-27 09:52 -28.59134 119.84888 37036 ft 479 kts 36°
2026-04-27 09:53 -28.54422 119.90278 37038 ft 480 kts 36°
2026-04-27 09:53 -28.49721 119.95668 37030 ft 480 kts 35°
2026-04-27 09:54 -28.45018 120.01049 37042 ft 480 kts 35°
2026-04-27 09:54 -28.40333 120.06395 37051 ft 480 kts 35°
2026-04-27 09:55 -28.35608 120.11774 37026 ft 480 kts 35°
2026-04-27 09:55 -28.28518 120.19834 37041 ft 481 kts 35°
2026-04-27 09:56 -28.23781 120.25219 37050 ft 482 kts 35°
2026-04-27 09:56 -28.19030 120.30604 37058 ft 483 kts 35°
2026-04-27 09:57 -28.14272 120.35982 37052 ft 483 kts 35°
2026-04-27 09:57 -28.09513 120.41356 37032 ft 484 kts 35°
2026-04-27 09:58 -28.04739 120.46752 37044 ft 485 kts 35°
2026-04-27 09:58 -27.99997 120.52105 37061 ft 485 kts 35°
2026-04-27 09:59 -27.95203 120.57500 37071 ft 485 kts 35°
2026-04-27 09:59 -27.90411 120.62884 37076 ft 486 kts 35°
2026-04-27 10:00 -27.85618 120.68272 37081 ft 485 kts 34°
2026-04-27 10:00 -27.83101 120.70738 37083 ft 473 kts 25°
2026-04-27 10:00 -27.80406 120.72841 37084 ft 469 kts 23°
2026-04-27 10:01 -27.75004 120.76969 37066 ft 470 kts 23°
2026-04-27 10:01 -27.69586 120.81115 37071 ft 470 kts 23°
2026-04-27 10:02 -27.64191 120.85248 37074 ft 471 kts 23°
2026-04-27 10:02 -27.58762 120.89395 37077 ft 471 kts 23°
2026-04-27 10:03 -27.53318 120.93547 37082 ft 471 kts 23°
2026-04-27 10:03 -27.47922 120.97650 37043 ft 471 kts 24°
2026-04-27 10:04 -27.42489 121.01787 37055 ft 471 kts 24°
2026-04-27 10:04 -27.37049 121.05924 37054 ft 472 kts 24°
2026-04-27 10:05 -27.31599 121.10049 37057 ft 471 kts 24°
2026-04-27 10:05 -27.26151 121.14175 37058 ft 472 kts 24°
2026-04-27 10:06 -27.20711 121.18306 37061 ft 472 kts 24°
2026-04-27 10:06 -27.15297 121.22402 37042 ft 472 kts 25°
2026-04-27 10:07 -27.09838 121.26519 37044 ft 471 kts 25°
2026-04-27 10:07 -27.04395 121.30623 37047 ft 472 kts 25°
2026-04-27 10:08 -26.98946 121.34738 37050 ft 472 kts 25°
2026-04-27 10:08 -26.93486 121.38850 37051 ft 472 kts 25°
2026-04-27 10:09 -26.88071 121.42918 37053 ft 471 kts 25°
2026-04-27 10:09 -26.82583 121.47036 37055 ft 472 kts 25°
2026-04-27 10:10 -26.77167 121.51093 37055 ft 472 kts 25°
2026-04-27 10:10 -26.71704 121.55189 37059 ft 473 kts 25°
2026-04-27 10:11 -26.66238 121.59284 37061 ft 473 kts 25°
2026-04-27 10:11 -26.60754 121.63393 37059 ft 473 kts 25°
2026-04-27 10:12 -26.55275 121.67483 37054 ft 473 kts 25°
2026-04-27 10:12 -26.49800 121.71560 37033 ft 473 kts 25°
2026-04-27 10:13 -26.44325 121.75644 37036 ft 473 kts 25°
2026-04-27 10:13 -26.38851 121.79733 37042 ft 473 kts 25°
2026-04-27 10:14 -26.33372 121.83804 37036 ft 474 kts 25°
2026-04-27 10:14 -26.27877 121.87872 37042 ft 474 kts 25°
2026-04-27 10:15 -26.22380 121.91950 37049 ft 475 kts 25°
2026-04-27 10:15 -26.16912 121.96000 37026 ft 475 kts 25°
2026-04-27 10:16 -26.11399 122.00072 37036 ft 475 kts 25°
2026-04-27 10:16 -26.05881 122.04143 37046 ft 476 kts 25°
2026-04-27 10:17 -26.00367 122.08232 37045 ft 476 kts 25°
2026-04-27 10:17 -25.94840 122.12319 37044 ft 477 kts 25°
2026-04-27 10:18 -25.89304 122.16391 37048 ft 477 kts 25°
2026-04-27 10:18 -25.83768 122.20459 37039 ft 477 kts 25°
2026-04-27 10:19 -25.78228 122.24534 37051 ft 477 kts 25°
2026-04-27 10:19 -25.72686 122.28593 37058 ft 477 kts 25°
2026-04-27 10:20 -25.67142 122.32654 37060 ft 477 kts 25°
2026-04-27 10:20 -25.61633 122.36693 37053 ft 477 kts 25°
2026-04-27 10:21 -25.56095 122.40743 37031 ft 477 kts 25°
2026-04-27 10:21 -25.50557 122.44790 37056 ft 476 kts 25°
2026-04-27 10:22 -25.45015 122.48843 37058 ft 476 kts 25°
2026-04-27 10:22 -25.39484 122.52884 37060 ft 476 kts 25°
2026-04-27 10:23 -25.33955 122.56903 37060 ft 475 kts 25°
2026-04-27 10:23 -25.29365 122.60242 37058 ft 475 kts 25°
2026-04-27 10:24 -25.23837 122.64270 37040 ft 475 kts 26°
2026-04-27 10:24 -25.18307 122.68277 37046 ft 475 kts 26°
2026-04-27 10:25 -25.12813 122.72263 37049 ft 475 kts 25°
2026-04-27 10:25 -25.07274 122.76266 37050 ft 475 kts 25°
2026-04-27 10:26 -25.01745 122.80261 37048 ft 475 kts 26°
2026-04-27 10:26 -24.96213 122.84269 37045 ft 475 kts 26°
2026-04-27 10:27 -24.90698 122.88263 37030 ft 474 kts 26°
2026-04-27 10:27 -24.85166 122.92247 37017 ft 475 kts 26°
2026-04-27 10:28 -24.79629 122.96224 37021 ft 476 kts 26°
2026-04-27 10:28 -24.74082 123.00211 37025 ft 476 kts 26°
2026-04-27 10:29 -24.68539 123.04201 37028 ft 476 kts 26°
2026-04-27 10:29 -24.62991 123.08192 37033 ft 477 kts 26°
2026-04-27 10:30 -24.57437 123.12176 37024 ft 477 kts 26°
2026-04-27 10:30 -24.51872 123.16155 37033 ft 477 kts 26°
2026-04-27 10:31 -24.46315 123.20136 37034 ft 477 kts 26°
2026-04-27 10:31 -24.40785 123.24102 37036 ft 478 kts 26°
2026-04-27 10:32 -24.35201 123.28082 37038 ft 478 kts 26°
2026-04-27 10:32 -24.29616 123.32062 37034 ft 478 kts 26°
2026-04-27 10:33 -24.24042 123.36038 37027 ft 478 kts 26°
2026-04-27 10:33 -24.18460 123.40015 37031 ft 478 kts 26°
2026-04-27 10:34 -24.12912 123.43959 37032 ft 478 kts 26°
2026-04-27 10:34 -24.07330 123.47928 37033 ft 478 kts 26°
2026-04-27 10:35 -24.01750 123.51881 37033 ft 478 kts 26°
2026-04-27 10:35 -23.96175 123.55826 37014 ft 478 kts 26°
2026-04-27 10:36 -23.90598 123.59780 37003 ft 478 kts 26°
2026-04-27 10:36 -23.85018 123.63741 37009 ft 478 kts 26°
2026-04-27 10:37 -23.79424 123.67689 37012 ft 478 kts 26°
2026-04-27 10:37 -23.73840 123.71624 37008 ft 478 kts 26°
2026-04-27 10:38 -23.68250 123.75556 37007 ft 478 kts 26°
2026-04-27 10:38 -23.62650 123.79503 37010 ft 479 kts 26°
2026-04-27 10:39 -23.57090 123.83426 37014 ft 479 kts 26°
2026-04-27 10:39 -23.51485 123.87372 37019 ft 480 kts 26°
2026-04-27 10:40 -23.45865 123.91320 37025 ft 480 kts 26°
2026-04-27 10:40 -23.40249 123.95261 37024 ft 480 kts 26°
2026-04-27 10:41 -23.34634 123.99188 37017 ft 480 kts 26°
2026-04-27 10:41 -23.29016 124.03122 37009 ft 480 kts 26°
2026-04-27 10:42 -23.23399 124.07047 37013 ft 480 kts 26°
2026-04-27 10:42 -23.17787 124.10974 37013 ft 480 kts 26°
2026-04-27 10:43 -23.12167 124.14899 37019 ft 480 kts 26°
2026-04-27 10:43 -23.06551 124.18815 37021 ft 480 kts 26°
2026-04-27 10:44 -23.00932 124.22730 37018 ft 480 kts 26°
2026-04-27 10:44 -22.95299 124.26651 37008 ft 480 kts 26°
2026-04-27 10:45 -22.89669 124.30556 37011 ft 480 kts 26°
2026-04-27 10:45 -22.84037 124.34458 37018 ft 480 kts 26°
2026-04-27 10:46 -22.78437 124.38348 37016 ft 480 kts 27°
2026-04-27 10:46 -22.72813 124.42263 37018 ft 480 kts 26°
2026-04-27 10:47 -22.67183 124.46169 37008 ft 480 kts 26°
2026-04-27 10:47 -22.61555 124.50051 37008 ft 480 kts 27°
2026-04-27 10:48 -22.55912 124.53948 37011 ft 480 kts 27°
2026-04-27 10:48 -22.50276 124.57842 37014 ft 480 kts 27°
2026-04-27 10:49 -22.44639 124.61732 37011 ft 480 kts 27°
2026-04-27 10:49 -22.39005 124.65612 37014 ft 480 kts 27°
2026-04-27 10:50 -22.33365 124.69499 37005 ft 480 kts 27°
2026-04-27 10:50 -22.27721 124.73375 37006 ft 480 kts 27°
2026-04-27 10:51 -22.22115 124.77226 37024 ft 481 kts 27°
2026-04-27 10:51 -22.16441 124.81124 37010 ft 481 kts 27°
2026-04-27 10:52 -22.10788 124.84995 37022 ft 481 kts 27°
2026-04-27 10:52 -22.05183 124.88843 37017 ft 481 kts 27°
2026-04-27 10:53 -21.96709 124.94641 37020 ft 481 kts 28°
2026-04-27 10:54 -21.91055 124.98505 37030 ft 481 kts 28°
2026-04-27 10:54 -21.85404 125.02365 37030 ft 480 kts 28°
2026-04-27 10:55 -21.79751 125.06215 37027 ft 480 kts 28°
2026-04-27 10:55 -21.74112 125.10065 37031 ft 481 kts 28°
2026-04-27 10:56 -21.68465 125.13916 37015 ft 480 kts 28°
2026-04-27 10:56 -21.62808 125.17758 37028 ft 480 kts 28°
2026-04-27 10:57 -21.57155 125.21584 37031 ft 480 kts 28°
2026-04-27 10:57 -21.51500 125.25417 37037 ft 480 kts 28°
2026-04-27 10:58 -21.45838 125.29263 37028 ft 481 kts 28°
2026-04-27 10:58 -21.40177 125.33099 37027 ft 482 kts 28°
2026-04-27 10:59 -21.34501 125.36948 37013 ft 482 kts 28°
2026-04-27 10:59 -21.28863 125.40768 37019 ft 482 kts 28°
2026-04-27 11:00 -21.20338 125.46527 37027 ft 483 kts 28°
2026-04-27 11:00 -21.14651 125.50355 37038 ft 483 kts 28°
2026-04-27 11:01 -21.08959 125.54186 37033 ft 483 kts 28°
2026-04-27 11:01 -21.03271 125.58016 37030 ft 483 kts 28°
2026-04-27 11:02 -20.97585 125.61849 37023 ft 483 kts 28°
2026-04-27 11:02 -20.91891 125.65681 37024 ft 483 kts 28°
2026-04-27 11:03 -20.86200 125.69508 37020 ft 483 kts 28°
2026-04-27 11:03 -20.80502 125.73331 37022 ft 484 kts 28°
2026-04-27 11:04 -20.74798 125.77149 37026 ft 484 kts 28°
2026-04-27 11:04 -20.70052 125.80327 37017 ft 484 kts 28°
2026-04-27 11:05 -20.64337 125.84147 37017 ft 485 kts 28°
2026-04-27 11:05 -20.58638 125.87968 37018 ft 485 kts 28°
2026-04-27 11:06 -20.52920 125.91792 37020 ft 484 kts 28°
2026-04-27 11:06 -20.47207 125.95602 37020 ft 484 kts 28°
2026-04-27 11:07 -20.41495 125.99412 37017 ft 484 kts 28°
2026-04-27 11:07 -20.35785 126.03213 37018 ft 484 kts 28°
2026-04-27 11:08 -20.30076 126.07012 37016 ft 484 kts 28°
2026-04-27 11:08 -20.24357 126.10817 37022 ft 484 kts 28°
2026-04-27 11:09 -20.18643 126.14629 37017 ft 485 kts 28°
2026-04-27 11:09 -20.12960 126.18397 37020 ft 485 kts 28°
2026-04-27 11:10 -20.07233 126.22193 37017 ft 484 kts 28°
2026-04-27 11:10 -20.01510 126.25988 37021 ft 485 kts 28°
2026-04-27 11:11 -19.95781 126.29781 37023 ft 485 kts 28°
2026-04-27 11:11 -19.90052 126.33579 37025 ft 485 kts 28°
2026-04-27 11:12 -19.84321 126.37366 37025 ft 485 kts 28°
2026-04-27 11:12 -19.78584 126.41156 37028 ft 485 kts 28°
2026-04-27 11:13 -19.72851 126.44939 37025 ft 485 kts 28°
2026-04-27 11:13 -19.67117 126.48718 37037 ft 485 kts 28°
2026-04-27 11:14 -19.61394 126.52491 37037 ft 485 kts 28°
2026-04-27 11:14 -19.55661 126.56262 37033 ft 485 kts 28°
2026-04-27 11:15 -19.49965 126.60009 37029 ft 485 kts 28°
2026-04-27 11:15 -19.44240 126.63777 37014 ft 484 kts 28°
2026-04-27 11:16 -19.38511 126.67535 37030 ft 484 kts 28°
2026-04-27 11:16 -19.32788 126.71288 37039 ft 484 kts 28°
2026-04-27 11:17 -19.27064 126.75038 37039 ft 483 kts 28°
2026-04-27 11:17 -19.21343 126.78786 37037 ft 484 kts 28°
2026-04-27 11:18 -19.15625 126.82530 37031 ft 484 kts 28°
2026-04-27 11:18 -19.09892 126.86276 37026 ft 483 kts 28°
2026-04-27 11:19 -19.04214 126.89989 37033 ft 483 kts 28°
2026-04-27 11:19 -18.98502 126.93716 37028 ft 482 kts 28°
2026-04-27 11:20 -18.92804 126.97430 37034 ft 481 kts 28°
2026-04-27 11:20 -18.87105 127.01144 37029 ft 482 kts 29°
2026-04-27 11:21 -18.81395 127.04859 37031 ft 482 kts 28°
2026-04-27 11:21 -18.75684 127.08572 37038 ft 482 kts 29°
2026-04-27 11:22 -18.69979 127.12281 37042 ft 481 kts 29°
2026-04-27 11:22 -18.64283 127.15992 37050 ft 481 kts 29°
2026-04-27 11:23 -18.58574 127.19704 37047 ft 481 kts 29°
2026-04-27 11:23 -18.52906 127.23369 37050 ft 481 kts 29°
2026-04-27 11:24 -18.47202 127.27065 37046 ft 481 kts 29°
2026-04-27 11:24 -18.41506 127.30757 37052 ft 480 kts 29°
2026-04-27 11:25 -18.35816 127.34443 37051 ft 480 kts 29°
2026-04-27 11:25 -18.30125 127.38123 37049 ft 480 kts 29°
2026-04-27 11:26 -18.24433 127.41798 37048 ft 480 kts 29°
2026-04-27 11:26 -18.18745 127.45471 37044 ft 480 kts 29°
2026-04-27 11:27 -18.13061 127.49142 37039 ft 479 kts 29°
2026-04-27 11:27 -18.07376 127.52811 37040 ft 479 kts 29°
2026-04-27 11:28 -18.01690 127.56473 37036 ft 479 kts 29°
2026-04-27 11:28 -17.96008 127.60128 37036 ft 479 kts 29°
2026-04-27 11:29 -17.90305 127.63799 36799 ft 486 kts 29°
2026-04-27 11:29 -17.87392 127.65672 36121 ft 493 kts 29°
2026-04-27 11:29 -17.84438 127.67566 35809 ft 501 kts 29°
2026-04-27 11:30 -17.81450 127.69484 35569 ft 505 kts 30°
2026-04-27 11:30 -17.78449 127.71411 35334 ft 505 kts 30°
2026-04-27 11:30 -17.75457 127.73332 35095 ft 504 kts 30°
2026-04-27 11:30 -17.72467 127.75252 34864 ft 503 kts 30°
2026-04-27 11:31 -17.69486 127.77165 34635 ft 501 kts 30°
2026-04-27 11:31 -17.66521 127.79066 34407 ft 499 kts 30°
2026-04-27 11:31 -17.63565 127.80960 34184 ft 497 kts 30°
2026-04-27 11:31 -17.60624 127.82840 33955 ft 495 kts 30°
2026-04-27 11:32 -17.57686 127.84716 33693 ft 493 kts 30°
2026-04-27 11:32 -17.54761 127.86584 33438 ft 491 kts 30°
2026-04-27 11:32 -17.51849 127.88447 33190 ft 489 kts 30°
2026-04-27 11:32 -17.48954 127.90303 32933 ft 487 kts 30°
2026-04-27 11:33 -17.46068 127.92155 32682 ft 485 kts 30°
2026-04-27 11:33 -17.43192 127.93999 32436 ft 483 kts 30°
2026-04-27 11:33 -17.40330 127.95830 32192 ft 482 kts 30°
2026-04-27 11:33 -17.37469 127.97652 31958 ft 480 kts 30°
2026-04-27 11:34 -17.34619 127.99466 31713 ft 478 kts 30°
2026-04-27 11:34 -17.31814 128.01251 31476 ft 476 kts 30°
2026-04-27 11:34 -17.28990 128.03051 31242 ft 475 kts 30°
2026-04-27 11:34 -17.26176 128.04847 31012 ft 473 kts 30°
2026-04-27 11:35 -17.23374 128.06636 30782 ft 471 kts 30°
2026-04-27 11:35 -17.20578 128.08420 30553 ft 469 kts 30°
2026-04-27 11:35 -17.17793 128.10193 30323 ft 468 kts 30°
2026-04-27 11:35 -17.15023 128.11958 30096 ft 466 kts 30°
2026-04-27 11:36 -17.12253 128.13721 29829 ft 464 kts 30°
2026-04-27 11:36 -17.09501 128.15470 29564 ft 462 kts 30°
2026-04-27 11:36 -17.06761 128.17216 29297 ft 460 kts 30°
2026-04-27 11:36 -17.04039 128.18951 29035 ft 458 kts 30°
2026-04-27 11:37 -17.01323 128.20679 28780 ft 456 kts 31°
2026-04-27 11:37 -16.98624 128.22394 28522 ft 454 kts 30°
2026-04-27 11:37 -16.95930 128.24108 28266 ft 452 kts 31°
2026-04-27 11:37 -16.93249 128.25811 28015 ft 450 kts 31°
2026-04-27 11:38 -16.90582 128.27503 27766 ft 448 kts 31°
2026-04-27 11:38 -16.87928 128.29185 27507 ft 446 kts 31°
2026-04-27 11:38 -16.85284 128.30863 27262 ft 444 kts 31°
2026-04-27 11:38 -16.82648 128.32535 27019 ft 442 kts 31°
2026-04-27 11:39 -16.80029 128.34194 26783 ft 440 kts 31°
2026-04-27 11:39 -16.77420 128.35845 26542 ft 438 kts 31°
2026-04-27 11:39 -16.74823 128.37488 26297 ft 436 kts 31°
2026-04-27 11:39 -16.72230 128.39128 26063 ft 434 kts 31°
2026-04-27 11:40 -16.69658 128.40758 25827 ft 432 kts 31°
2026-04-27 11:40 -16.67087 128.42385 25598 ft 431 kts 31°
2026-04-27 11:40 -16.64561 128.43979 25372 ft 429 kts 30°
2026-04-27 11:40 -16.61859 128.45260 25142 ft 426 kts 17°
2026-04-27 11:41 -16.59022 128.46146 24915 ft 424 kts 15°
2026-04-27 11:41 -16.56188 128.47013 24689 ft 423 kts 15°
2026-04-27 11:41 -16.53366 128.47870 24467 ft 422 kts 15°
2026-04-27 11:41 -16.50560 128.48721 24242 ft 420 kts 15°
2026-04-27 11:42 -16.47756 128.49571 24020 ft 419 kts 15°
2026-04-27 11:42 -16.44960 128.50417 23805 ft 417 kts 16°
2026-04-27 11:42 -16.42183 128.51262 23589 ft 415 kts 16°
2026-04-27 11:42 -16.39413 128.52106 23335 ft 414 kts 16°
2026-04-27 11:43 -16.36654 128.52943 23073 ft 412 kts 16°
2026-04-27 11:43 -16.33905 128.53774 22817 ft 411 kts 16°
2026-04-27 11:43 -16.31161 128.54607 22563 ft 409 kts 16°
2026-04-27 11:43 -16.28437 128.55436 22311 ft 408 kts 16°
2026-04-27 11:44 -16.25719 128.56266 22061 ft 406 kts 16°
2026-04-27 11:44 -16.23012 128.57092 21809 ft 405 kts 16°
2026-04-27 11:44 -16.20352 128.57902 21571 ft 403 kts 16°
2026-04-27 11:44 -16.17666 128.58721 21326 ft 401 kts 16°
2026-04-27 11:45 -16.14990 128.59534 21082 ft 400 kts 16°
2026-04-27 11:45 -16.13188 128.60080 20920 ft 399 kts 16°
2026-04-27 11:45 -16.09666 128.61144 20604 ft 397 kts 16°
2026-04-27 11:45 -16.07019 128.61943 20269 ft 395 kts 16°
2026-04-27 11:46 -16.04381 128.62740 19954 ft 393 kts 16°
2026-04-27 11:46 -16.01764 128.63532 19721 ft 392 kts 16°
2026-04-27 11:46 -15.99150 128.64324 19492 ft 390 kts 16°
2026-04-27 11:46 -15.96546 128.65117 19264 ft 389 kts 17°
2026-04-27 11:47 -15.93950 128.65905 19038 ft 388 kts 17°
2026-04-27 11:47 -15.91362 128.66687 18809 ft 387 kts 17°
2026-04-27 11:47 -15.88776 128.67469 18587 ft 386 kts 17°
2026-04-27 11:47 -15.86202 128.68249 18359 ft 385 kts 17°
2026-04-27 11:48 -15.83631 128.69030 18128 ft 384 kts 17°
2026-04-27 11:48 -15.81097 128.69797 17877 ft 383 kts 17°
2026-04-27 11:48 -15.78550 128.70590 17623 ft 381 kts 20°
2026-04-27 11:48 -15.76178 128.71782 17372 ft 378 kts 33°
2026-04-27 11:49 -15.73979 128.73261 17135 ft 376 kts 34°
2026-04-27 11:49 -15.71784 128.74731 17071 ft 376 kts 33°
2026-04-27 11:49 -15.69585 128.76195 17021 ft 375 kts 33°
2026-04-27 11:49 -15.67383 128.77656 16968 ft 375 kts 33°
2026-04-27 11:50 -15.65186 128.79109 16922 ft 374 kts 33°
2026-04-27 11:50 -15.62995 128.80561 16872 ft 374 kts 33°
2026-04-27 11:50 -15.60798 128.82019 16824 ft 374 kts 33°
2026-04-27 11:50 -15.58612 128.83474 16775 ft 373 kts 34°
2026-04-27 11:51 -15.56429 128.84929 16728 ft 373 kts 33°
2026-04-27 11:51 -15.54247 128.86385 16677 ft 373 kts 34°
2026-04-27 11:51 -15.49894 128.89297 16582 ft 372 kts 34°
2026-04-27 11:52 -15.48448 128.90262 16548 ft 372 kts 33°
2026-04-27 11:52 -15.46269 128.91713 16503 ft 372 kts 33°
2026-04-27 11:52 -15.43380 128.93636 16439 ft 372 kts 33°
2026-04-27 11:52 -15.41907 128.94616 16402 ft 372 kts 33°
2026-04-27 11:53 -15.39727 128.96066 16354 ft 372 kts 33°
2026-04-27 11:53 -15.37551 128.97511 16296 ft 371 kts 33°
2026-04-27 11:53 -15.35378 128.98953 16255 ft 371 kts 33°
2026-04-27 11:53 -15.33200 129.00398 16207 ft 370 kts 33°
2026-04-27 11:54 -15.31029 129.01837 16159 ft 370 kts 33°
2026-04-27 11:54 -15.28893 129.03253 16112 ft 369 kts 33°
2026-04-27 11:54 -15.26733 129.04687 16063 ft 369 kts 33°
2026-04-27 11:54 -15.24569 129.06123 16016 ft 369 kts 33°
2026-04-27 11:55 -15.22409 129.07555 15958 ft 368 kts 33°
2026-04-27 11:55 -15.20251 129.08984 15913 ft 368 kts 33°
2026-04-27 11:55 -15.18094 129.10414 15868 ft 368 kts 33°
2026-04-27 11:55 -15.15942 129.11844 15819 ft 367 kts 33°
2026-04-27 11:56 -15.13791 129.13273 15772 ft 367 kts 33°
2026-04-27 11:56 -15.11639 129.14702 15724 ft 368 kts 33°
2026-04-27 11:56 -15.09490 129.16130 15677 ft 367 kts 33°
2026-04-27 11:56 -15.07340 129.17556 15630 ft 367 kts 33°
2026-04-27 11:57 -15.05187 129.18978 15586 ft 367 kts 33°
2026-04-27 11:57 -15.03034 129.20397 15536 ft 366 kts 33°
2026-04-27 11:57 -15.00913 129.21796 15490 ft 366 kts 33°
2026-04-27 11:57 -14.98768 129.23214 15443 ft 365 kts 33°
2026-04-27 11:58 -14.96629 129.24630 15393 ft 365 kts 33°
2026-04-27 11:58 -14.94491 129.26044 15346 ft 365 kts 33°
2026-04-27 11:58 -14.92349 129.27460 15300 ft 364 kts 33°
2026-04-27 11:58 -14.90213 129.28873 15250 ft 364 kts 33°
2026-04-27 11:59 -14.88082 129.30284 15204 ft 364 kts 33°
2026-04-27 11:59 -14.85951 129.31691 15157 ft 363 kts 33°
2026-04-27 11:59 -14.83820 129.33098 15111 ft 363 kts 33°
2026-04-27 11:59 -14.81689 129.34504 15065 ft 363 kts 33°
2026-04-27 12:00 -14.79564 129.35908 15018 ft 363 kts 33°
2026-04-27 12:00 -14.77436 129.37314 14972 ft 363 kts 33°
2026-04-27 12:00 -14.75312 129.38716 14926 ft 363 kts 33°
2026-04-27 12:00 -14.73184 129.40118 14880 ft 362 kts 33°
2026-04-27 12:01 -14.71060 129.41520 14837 ft 362 kts 33°
2026-04-27 12:01 -14.68942 129.42918 14791 ft 361 kts 33°
2026-04-27 12:01 -14.66825 129.44316 14749 ft 361 kts 33°
2026-04-27 12:01 -14.64712 129.45710 14700 ft 361 kts 33°
2026-04-27 12:02 -14.62597 129.47104 14654 ft 360 kts 33°
2026-04-27 12:02 -14.60483 129.48499 14608 ft 360 kts 33°
2026-04-27 12:02 -14.58416 129.49866 14514 ft 353 kts 33°
2026-04-27 12:02 -14.56331 129.51240 14159 ft 350 kts 33°
2026-04-27 12:03 -14.54287 129.52584 13826 ft 346 kts 33°
2026-04-27 12:03 -14.52269 129.53911 13454 ft 343 kts 33°
2026-04-27 12:03 -14.50293 129.55212 13082 ft 339 kts 33°
2026-04-27 12:03 -14.48313 129.56516 12710 ft 336 kts 33°
2026-04-27 12:04 -14.46349 129.57810 12341 ft 333 kts 33°
2026-04-27 12:04 -14.44407 129.59087 11971 ft 329 kts 33°
2026-04-27 12:04 -14.42484 129.60351 11615 ft 326 kts 33°
2026-04-27 12:04 -14.40582 129.61601 11264 ft 323 kts 33°
2026-04-27 12:05 -14.38696 129.62840 10912 ft 320 kts 33°
2026-04-27 12:05 -14.36830 129.64066 10565 ft 317 kts 33°
2026-04-27 12:05 -14.34980 129.65282 10221 ft 314 kts 33°
2026-04-27 12:05 -14.33149 129.66485 9883 ft 311 kts 33°
2026-04-27 12:06 -14.31338 129.67677 9498 ft 307 kts 34°
2026-04-27 12:06 -14.29545 129.68855 9121 ft 304 kts 34°
2026-04-27 12:06 -14.27789 129.70007 8945 ft 294 kts 34°
2026-04-27 12:06 -14.26080 129.71126 8953 ft 291 kts 34°
2026-04-27 12:07 -14.24373 129.72242 8956 ft 290 kts 34°
2026-04-27 12:07 -14.22670 129.73358 8961 ft 290 kts 34°
2026-04-27 12:07 -14.20969 129.74476 8953 ft 290 kts 34°
2026-04-27 12:07 -14.19267 129.75590 8959 ft 290 kts 34°
2026-04-27 12:08 -14.17560 129.76708 8963 ft 290 kts 34°
2026-04-27 12:08 -14.15860 129.77823 8959 ft 290 kts 34°
2026-04-27 12:08 -14.14180 129.78924 8964 ft 290 kts 34°
2026-04-27 12:08 -14.12457 129.80054 8964 ft 290 kts 34°
2026-04-27 12:09 -14.10752 129.81172 8960 ft 290 kts 33°
2026-04-27 12:09 -14.09074 129.82273 8961 ft 290 kts 34°
2026-04-27 12:09 -14.07373 129.83392 8961 ft 290 kts 34°
2026-04-27 12:09 -14.05671 129.84509 8957 ft 290 kts 33°
2026-04-27 12:10 -14.03969 129.85624 8960 ft 290 kts 34°
2026-04-27 12:10 -14.02267 129.86741 8964 ft 290 kts 33°
2026-04-27 12:10 -14.00563 129.87854 8964 ft 290 kts 33°
2026-04-27 12:10 -13.98859 129.88963 8964 ft 290 kts 33°
2026-04-27 12:11 -13.97157 129.90075 8962 ft 290 kts 33°
2026-04-27 12:11 -13.95456 129.91188 8957 ft 290 kts 33°
2026-04-27 12:11 -13.93753 129.92303 8961 ft 290 kts 33°
2026-04-27 12:11 -13.92053 129.93413 8958 ft 290 kts 33°
2026-04-27 12:12 -13.90349 129.94525 8961 ft 290 kts 33°
2026-04-27 12:12 -13.88647 129.95639 8954 ft 290 kts 33°
2026-04-27 12:12 -13.86950 129.96751 8949 ft 290 kts 34°
2026-04-27 12:12 -13.85249 129.97867 8956 ft 290 kts 33°
2026-04-27 12:13 -13.83551 129.98981 8947 ft 290 kts 34°
2026-04-27 12:13 -13.82424 129.99720 8948 ft 290 kts 33°
2026-04-27 12:14 -13.74918 130.04622 8949 ft 291 kts 33°
2026-04-27 12:14 -13.73198 130.05745 8950 ft 292 kts 33°
2026-04-27 12:14 -13.71485 130.06864 8947 ft 292 kts 33°
2026-04-27 12:15 -13.69772 130.07981 8954 ft 292 kts 33°
2026-04-27 12:15 -13.68058 130.09098 8953 ft 292 kts 33°
2026-04-27 12:15 -13.66345 130.10214 8953 ft 292 kts 33°
2026-04-27 12:15 -13.64655 130.11319 8946 ft 292 kts 33°
2026-04-27 12:16 -13.62942 130.12436 8946 ft 292 kts 33°
2026-04-27 12:16 -13.61226 130.13553 8950 ft 292 kts 33°
2026-04-27 12:16 -13.59512 130.14668 8953 ft 292 kts 33°
2026-04-27 12:16 -13.57774 130.15800 8948 ft 292 kts 33°
2026-04-27 12:17 -13.56078 130.16902 8945 ft 292 kts 33°
2026-04-27 12:17 -13.54341 130.18031 8947 ft 292 kts 33°
2026-04-27 12:17 -13.52624 130.19146 8945 ft 292 kts 33°
2026-04-27 12:17 -13.50932 130.20245 8946 ft 292 kts 33°
2026-04-27 12:18 -13.49196 130.21376 8945 ft 292 kts 33°
2026-04-27 12:18 -13.47479 130.22495 8953 ft 292 kts 33°
2026-04-27 12:18 -13.45784 130.23599 8948 ft 292 kts 33°
2026-04-27 12:18 -13.44068 130.24713 8947 ft 293 kts 32°
2026-04-27 12:19 -13.42318 130.25847 8949 ft 294 kts 32°
2026-04-27 12:19 -13.40611 130.26954 8950 ft 295 kts 32°
2026-04-27 12:19 -13.38876 130.28083 8947 ft 295 kts 32°
2026-04-27 12:19 -13.37145 130.29211 8939 ft 295 kts 32°
2026-04-27 12:20 -13.35415 130.30338 8947 ft 295 kts 32°
2026-04-27 12:20 -13.33683 130.31467 8948 ft 295 kts 32°
2026-04-27 12:20 -13.31950 130.32598 8941 ft 295 kts 32°
2026-04-27 12:20 -13.30220 130.33725 8945 ft 295 kts 32°
2026-04-27 12:21 -13.28488 130.34852 8940 ft 295 kts 32°
2026-04-27 12:21 -13.26754 130.35978 8939 ft 295 kts 32°
2026-04-27 12:21 -13.25021 130.37104 8947 ft 295 kts 32°
2026-04-27 12:21 -13.23289 130.38231 8948 ft 295 kts 32°
2026-04-27 12:22 -13.21557 130.39359 8950 ft 295 kts 32°
2026-04-27 12:22 -13.19823 130.40483 8946 ft 295 kts 32°
2026-04-27 12:22 -13.18088 130.41605 8950 ft 295 kts 32°
2026-04-27 12:22 -13.16350 130.42730 8950 ft 295 kts 32°
2026-04-27 12:23 -13.14614 130.43854 8949 ft 295 kts 32°
2026-04-27 12:23 -13.12880 130.44978 8943 ft 296 kts 31°
2026-04-27 12:23 -13.11137 130.46109 8944 ft 297 kts 31°
2026-04-27 12:23 -13.09388 130.47245 8949 ft 297 kts 31°
2026-04-27 12:24 -13.07638 130.48381 8948 ft 297 kts 31°
2026-04-27 12:24 -13.05892 130.49511 8951 ft 297 kts 31°
2026-04-27 12:24 -13.04141 130.50643 8951 ft 297 kts 31°
2026-04-27 12:24 -13.02395 130.51772 8951 ft 297 kts 31°
2026-04-27 12:25 -13.00646 130.52904 8943 ft 297 kts 31°
2026-04-27 12:25 -12.98902 130.54033 8940 ft 297 kts 31°
2026-04-27 12:25 -12.97153 130.55165 8948 ft 297 kts 31°
2026-04-27 12:25 -12.95998 130.55913 8943 ft 297 kts 31°
2026-04-27 12:26 -12.93686 130.57415 8944 ft 297 kts 31°
2026-04-27 12:26 -12.91940 130.58548 8942 ft 297 kts 31°
2026-04-27 12:26 -12.90194 130.59678 8942 ft 297 kts 31°
2026-04-27 12:26 -12.88446 130.60805 8940 ft 297 kts 31°
2026-04-27 12:27 -12.86696 130.61932 8940 ft 297 kts 31°
2026-04-27 12:27 -12.84949 130.63061 8972 ft 297 kts 31°
2026-04-27 12:27 -12.83199 130.64195 8899 ft 297 kts 31°
2026-04-27 12:27 -12.81451 130.65329 8771 ft 298 kts 31°
2026-04-27 12:28 -12.79697 130.66466 8651 ft 299 kts 31°
2026-04-27 12:28 -12.78529 130.67223 8566 ft 299 kts 31°
2026-04-27 12:28 -12.76772 130.68361 8449 ft 298 kts 31°
2026-04-27 12:28 -12.75021 130.69492 8320 ft 298 kts 31°
2026-04-27 12:29 -12.73272 130.70622 8198 ft 297 kts 32°
2026-04-27 12:29 -12.71524 130.71751 8076 ft 296 kts 32°
2026-04-27 12:29 -12.69785 130.72872 7955 ft 295 kts 32°
2026-04-27 12:29 -12.68045 130.73995 7739 ft 294 kts 32°
2026-04-27 12:30 -12.66313 130.75098 7462 ft 292 kts 29°
2026-04-27 12:30 -12.64410 130.75792 7171 ft 291 kts
2026-04-27 12:30 -12.62402 130.75807 6875 ft 289 kts 350°
2026-04-27 12:30 -12.60502 130.75154 6585 ft 289 kts 331°
2026-04-27 12:31 -12.58751 130.74130 6282 ft 290 kts 330°
2026-04-27 12:31 -12.57007 130.73105 5984 ft 289 kts 330°
2026-04-27 12:31 -12.55263 130.72081 5690 ft 289 kts 330°
2026-04-27 12:31 -12.53522 130.71060 5398 ft 288 kts 330°
2026-04-27 12:32 -12.51787 130.70040 5106 ft 287 kts 330°
2026-04-27 12:32 -12.50059 130.69019 4818 ft 287 kts 331°
2026-04-27 12:32 -12.48357 130.68007 4501 ft 276 kts 331°
2026-04-27 12:32 -12.46764 130.67057 4186 ft 255 kts 331°
2026-04-27 12:33 -12.45243 130.66177 3994 ft 248 kts 332°
2026-04-27 12:33 -12.43736 130.65423 3774 ft 241 kts 343°
2026-04-27 12:33 -12.42122 130.65090 3497 ft 235 kts
2026-04-27 12:33 -12.40491 130.65228 3179 ft 228 kts 15°
2026-04-27 12:34 -12.39046 130.65669 2870 ft 211 kts 22°
2026-04-27 12:34 -12.37720 130.66146 2631 ft 193 kts 22°
2026-04-27 12:34 -12.36499 130.66592 2421 ft 179 kts 26°
2026-04-27 12:34 -12.35535 130.67243 2312 ft 157 kts 52°
2026-04-27 12:35 -12.35091 130.68174 2155 ft 141 kts 86°
2026-04-27 12:35 -12.35236 130.69126 2021 ft 133 kts 110°
2026-04-27 12:35 -12.35544 130.70015 2024 ft 133 kts 109°
2026-04-27 12:35 -12.35818 130.70915 2020 ft 133 kts 108°
2026-04-27 12:36 -12.36098 130.71819 1996 ft 133 kts 111°
2026-04-27 12:36 -12.36409 130.72704 1969 ft 132 kts 109°
2026-04-27 12:36 -12.36697 130.73599 1905 ft 132 kts 107°
2026-04-27 12:36 -12.36968 130.74499 1846 ft 132 kts 109°
2026-04-27 12:37 -12.37261 130.75389 1845 ft 132 kts 109°
2026-04-27 12:37 -12.37549 130.76284 1843 ft 133 kts 109°
2026-04-27 12:37 -12.37839 130.77187 1704 ft 133 kts 109°
2026-04-27 12:37 -12.38141 130.78083 1544 ft 133 kts 109°
2026-04-27 12:38 -12.38432 130.78970 1394 ft 133 kts 108°
2026-04-27 12:38 -12.38731 130.79866 1225 ft 132 kts 108°
2026-04-27 12:38 -12.39028 130.80753 1087 ft 131 kts 109°
2026-04-27 12:38 -12.39330 130.81639 1062 ft 133 kts 108°
2026-04-27 12:39 -12.39625 130.82542 937 ft 134 kts 107°
2026-04-27 12:39 -12.39947 130.83438 797 ft 134 kts 109°
2026-04-27 12:39 -12.40255 130.84340 669 ft 135 kts 105°
2026-04-27 12:39 -12.40537 130.85254 420 ft 134 kts 107°
2026-04-27 12:40 -12.40828 130.86159 225 ft 134 kts 106°
2026-04-27 12:40 -12.41116 130.87054 96 ft 125 kts 108°
2026-04-27 12:40 -12.41347 130.87745 92 ft 78 kts 109°
2026-04-27 12:40 -12.41400 130.87985 90 ft 20 kts 52°
2026-04-27 12:41 -12.41311 130.88026 92 ft 2 kts 19°
2026-04-27 12:41 -12.41301 130.88029 92 ft 1 kts 19°
2026-04-27 12:41 -12.41275 130.88039 90 ft 9 kts 19°
2026-04-27 12:41 -12.41186 130.88070 90 ft 16 kts 19°
2026-04-27 12:42 -12.41098 130.88097 91 ft 13 kts
2026-04-27 12:42 -12.41043 130.88034 90 ft 12 kts 291°
2026-04-27 12:42 -12.41012 130.87963 92 ft 6 kts 322°
2026-04-27 12:42 -12.40989 130.87964 90 ft 0 kts 354°
2026-04-27 12:43 -12.40981 130.87943 90 ft 3 kts 293°
2026-04-27 12:43 -12.40953 130.87938 90 ft 5 kts 18°
2026-04-27 12:43 -12.40946 130.87941 92 ft 1 kts 20°
2026-04-27 12:43 -12.40941 130.87943 92 ft 0 kts 20°